Home > Weather > Lindau (Bodensee) > Past weeks

Flag for Germany Weather for the Past 2 Weeks in Lindau (Bodensee), Bavaria, Germany

Now
40 °F

Passing clouds.


Feels Like: 40 °F
Forecast: 44 / 51 °F
Wind: 1 mph from Northeast

Location: Bregenz

Current Time: Apr 30, 2016 at 9:34:55 AM

Latest Report: Apr 30, 2016 at 8:00 AM


Visibility: 16 mi

Pressure: 30.07 "Hg

Humidity: 88%

Dew Point: 37 °F

Location of Lindau (Bodensee)Location

Historic Weather in Lindau (Bodensee) — Graph

°F

Lindau (Bodensee) Temperature Yesterday

Maximum temperature yesterday: 59 °F (at 7:00 PM)
Minimum temperature yesterday: 46 °F (at 11:00 PM)
Average temperature yesterday: 53 °F

High & Low Weather Summary for the Past Weeks

 TemperatureHumidityPressure
High69 °F (Apr 22, 5:00 PM)97% (Apr 16, 6:00 AM)30.36 "Hg (Apr 16, 6:00 AM)
Low35 °F (Apr 25, 1:00 AM)35% (Apr 28, 5:00 PM)29.65 "Hg (Apr 17, 12:00 AM)
Average48 °F77%29.96 "Hg
* Reported Apr 15 7:00 AM — Apr 30 7:00 AM, Lindau (Bodensee), Weather by CustomWeather, © 2016

Note: Actual official high and low records may vary slightly from our data, if they occured in-between our weather recording intervals... More about our weather records

Advertising

Lindau (Bodensee) Weather History for the Previous 24 Hours

Scroll right to see more
 ConditionsComfort  
Time TempWeatherWind HumidityBarometerVisibility
7:00 AM
Sat, Apr 30
39 °FPassing clouds.1 mph90%30.07 "Hg9 mi
6:00 AM40 °FQuite cool.No wind86%30.06 "HgN/A
4:00 AM40 °FQuite cool.2 mph86%30.04 "HgN/A
3:00 AM42 °FQuite cool.1 mph88%30.05 "HgN/A
2:00 AM43 °FQuite cool.1 mph79%30.05 "HgN/A
1:00 AM46 °FCool.1 mph72%30.05 "HgN/A
12:00 AM44 °FQuite cool.1 mph79%30.06 "HgN/A
11:00 PM
Fri, Apr 29
46 °FCool.1 mph75%30.05 "HgN/A
10:00 PM47 °FCool.2 mph72%30.05 "HgN/A
9:00 PM49 °FCool.1 mph68%30.03 "HgN/A
8:00 PM56 °FRefreshingly cool.1 mph47%30.01 "HgN/A
7:00 PM59 °FRefreshingly cool.1 mph40%29.99 "HgN/A
6:00 PM58 °FRefreshingly cool.1 mph42%30.01 "HgN/A
5:00 PM55 °FRefreshingly cool.2 mph46%30.02 "HgN/A
4:00 PM55 °FRefreshingly cool.3 mph40%30.02 "HgN/A
3:00 PM55 °FCool.2 mph42%30.03 "HgN/A
2:00 PM52 °FCool.2 mph55%30.05 "HgN/A
1:00 PM50 °FCool.2 mph60%30.06 "HgN/A
Weather by CustomWeather, © 2016

See weather overviewHow to use our weather pages